RH
87 73 64 64 68 76 85 90 87 82 83 84 83 88 93 93 93 88 81 80 81 89 97 93 93 96 85 73 71 69 68 64 62 57 51 60 71 69 66 63 61 61 58 56 47 28 19 19 23 30 30 27 23 17 15 12 12 18 17 18 31 38 35 32 38 43 36 25 24 22 18 18 21 22 23 26 29 33 45 58 66 74 79 81 79 78 89
87 69 57 58 65 69 72 78 82 81 83 84 83 88 94 92 89 85 83 82 84 92 98 96 97 96 86 81 82 77 72 69 66 59 55 67 77 74 69 60 53 54 49 46 46 37 29 23 18 24 29 23 18 16 14 13 15 16 17 24 26 27 39 43 37 35 28 24 26 20 14 20 30 36 30 22 29 36 38 49 63 70 76 75 65 73 95
85 67 56 56 65 71 69 68 69 71 79 87 87 89 94 93 89 85 82 83 87 92 95 97 100 98 93 90 89 85 78 69 64 59 57 64 66 65 65 58 53 53 47 46 47 41 39 31 16 19 27 23 18 17 13 14 16 13 16 20 16 26 51 51 40 47 48 41 47 49 40 31 30 34 29 22 27 28 28 39 45 47 61 68 67 83 102
78 65 58 60 70 77 73 69 66 65 76 91 93 90 93 95 93 90 85 83 85 86 85 90 97 97 97 95 87 83 80 67 58 61 66 64 58 58 59 54 54 56 53 55 54 46 47 42 25 19 21 21 18 14 15 16 11 13 20 19 24 45 58 53 51 53 48 52 65 67 48 27 23 25 22 26 32 30 37 44 40 45 62 73 81 93 101
69 65 66 72 81 85 80 77 73 65 71 89 95 91 91 91 90 92 91 87 88 91 87 88 92 90 92 95 83 72 75 72 63 65 71 67 60 61 61 54 55 63 64 64 61 59 61 57 46 34 27 32 29 14 14 18 9 16 27 22 31 45 41 49 67 62 53 61 63 56 47 40 46 44 31 33 41 37 35 37 45 59 62 68 87 97 96
67 70 76 83 91 92 87 87 82 68 69 87 96 95 94 94 91 88 88 88 91 93 87 84 88 86 85 90 86 80 81 81 76 72 72 68 61 63 69 65 59 62 66 65 66 72 73 66 65 62 53 57 53 24 13 17 12 20 31 27 37 49 44 58 81 79 78 82 71 67 75 78 85 85 70 66 59 37 26 41 62 63 48 59 91 98 92
65 71 80 89 96 96 93 94 86 69 70 86 96 97 96 97 97 93 91 93 94 89 81 81 88 88 85 90 92 90 86 82 79 74 75 79 72 64 71 73 64 62 71 75 75 76 73 67 71 73 64 64 63 40 24 24 22 25 34 35 45 58 58 68 85 83 81 87 82 78 81 87 94 96 93 95 81 56 53 73 82 72 66 79 95 94 90
56 65 77 88 95 97 96 97 88 72 72 88 97 99 98 97 98 98 97 98 97 91 84 88 96 94 91 93 92 89 88 84 82 77 75 83 82 68 66 72 71 71 78 80 74 68 68 69 69 69 70 70 65 54 43 40 33 29 33 34 39 51 60 73 90 90 80 84 89 82 77 85 93 94 96 98 86 76 83 92 89 89 95 95 91 95 96
50 57 68 78 88 94 92 91 87 76 77 88 95 97 98 96 95 97 100 98 94 91 90 94 101 100 96 95 91 90 92 86 84 82 71 71 79 72 64 69 77 81 77 71 67 64 66 70 65 63 73 72 63 62 62 53 40 34 37 41 44 56 70 77 84 88 85 82 85 84 78 76 81 92 101 100 90 83 85 87 87 90 96 97 95 99 99
49 52 60 68 77 86 87 84 82 79 80 86 88 90 93 93 90 92 97 98 93 92 94 96 98 97 95 92 88 89 90 83 83 86 72 60 63 63 62 67 74 79 73 60 56 56 56 60 60 59 63 61 58 65 70 65 57 53 58 68 69 65 69 75 77 81 85 83 86 90 76 57 62 81 95 99 98 92 89 92 90 84 87 95 94 89 86
47 49 55 61 68 78 84 83 78 78 83 85 84 86 89 90 92 93 96 100 95 92 97 99 97 95 90 85 85 86 89 86 85 88 82 69 60 56 62 71 72 72 67 53 45 49 52 53 55 54 53 55 58 61 63 68 73 74 74 79 78 68 69 83 89 83 79 83 87 80 63 53 67 87 94 95 94 93 95 97 94 89 89 90 85 80 80
44 46 50 56 61 68 77 82 79 75 76 79 79 83 84 86 93 98 99 101 96 94 99 97 94 94 90 87 89 88 90 91 86 83 82 78 70 61 62 73 70 60 55 46 40 46 49 49 55 56 50 52 56 55 60 68 72 75 74 67 65 71 82 94 98 88 84 90 80 60 59 76 90 94 94 92 90 91 95 97 95 95 96 90 86 84 80
41 43 46 50 55 60 66 75 80 78 76 73 71 75 79 84 93 99 99 101 99 97 99 95 91 92 91 92 95 91 88 86 82 83 85 83 80 70 62 67 63 50 46 46 43 48 54 60 69 67 62 68 68 59 63 70 68 70 74 66 60 71 85 95 96 86 82 89 80 62 71 92 94 86 87 89 88 85 85 87 89 92 95 92 88 85 78
38 40 43 45 48 52 56 60 68 74 78 78 75 75 77 78 87 95 99 101 99 96 96 95 91 89 88 90 93 93 90 85 81 83 83 81 82 74 59 55 53 47 46 46 46 53 62 74 81 75 72 81 77 65 70 77 72 72 78 75 68 69 73 81 86 83 83 94 95 86 87 95 94 90 88 86 86 86 84 86 90 94 95 90 86 83 77
37 37 40 43 44 47 49 50 52 55 61 67 73 78 81 79 81 90 97 100 100 96 93 90 85 86 89 86 86 93 97 92 85 81 76 70 67 62 53 47 45 44 42 45 59 73 76 80 86 83 80 79 71 66 76 81 74 73 78 77 72 70 69 68 73 83 91 97 99 97 96 94 90 89 87 80 76 79 83 86 93 95 88 80 79 80 76
36 37 39 41 42 43 44 44 45 44 44 49 56 67 80 84 85 90 96 100 102 94 82 75 76 87 93 83 79 87 91 89 90 90 87 77 59 50 48 43 40 42 40 50 75 89 85 83 88 88 86 83 75 67 74 82 79 74 76 74 68 70 77 78 80 88 92 91 94 99 93 83 79 83 85 77 69 71 77 81 88 91 82 73 75 76 73
35 37 39 40 41 43 43 42 42 42 39 41 50 63 76 83 88 96 98 99 103 93 74 68 77 91 94 85 83 86 82 82 87 85 84 79 62 49 44 38 38 39 39 56 84 94 89 89 91 90 87 85 78 67 72 87 85 73 78 87 81 78 85 88 86 89 91 91 95 96 85 74 76 82 83 74 63 63 70 75 83 87 80 71 72 73 71
33 36 38 41 42 43 44 42 40 39 36 36 45 61 75 81 89 100 99 98 104 94 72 68 80 85 82 79 81 81 76 78 82 79 82 81 68 55 45 40 43 41 37 58 86 94 89 85 85 89 86 78 74 71 73 81 81 78 85 92 88 86 89 90 88 89 93 95 95 92 84 80 84 84 77 67 59 61 70 79 85 86 79 71 70 71 70
29 33 36 40 42 43 45 44 41 39 36 33 39 54 71 78 86 98 100 99 104 93 67 63 76 75 66 65 69 68 69 75 77 77 80 72 56 49 46 42 43 43 50 71 87 88 86 80 78 90 92 81 78 81 78 76 81 89 89 81 78 82 84 85 85 83 89 97 96 88 78 75 83 82 68 60 65 75 82 81 79 78 76 72 70 69 69
26 29 32 37 41 43 44 44 44 41 37 34 36 47 63 73 80 93 99 98 104 93 61 51 65 66 56 57 59 55 58 67 72 77 80 66 52 54 58 52 45 43 54 70 73 72 80 79 73 80 88 86 84 83 83 83 85 90 89 83 82 84 83 85 86 84 93 100 95 85 76 72 75 77 72 73 80 83 82 79 78 77 74 71 70 68 67
23 26 29 34 37 41 43 44 45 43 39 37 35 40 58 72 75 82 90 96 105 95 60 40 46 47 42 48 52 49 50 54 56 65 70 62 56 59 61 59 54 47 53 66 65 61 74 83 78 74 80 88 86 79 82 90 84 80 85 86 83 83 89 94 90 85 91 97 90 86 87 83 75 71 73 77 74 66 63 70 80 80 73 71 72 69 67
22 22 26 30 32 37 41 43 45 45 41 39 36 34 49 67 68 63 68 81 90 80 53 35 34 33 30 35 41 44 47 46 44 50 57 57 55 54 51 54 54 46 47 57 56 54 65 76 77 77 82 90 90 83 86 93 88 81 81 78 75 78 83 87 89 87 90 93 91 87 86 84 77 70 68 67 62 57 55 60 71 78 75 72 74 72 70
23 20 22 26 29 32 36 38 43 46 42 40 38 33 40 58 62 47 45 63 72 60 41 32 32 31 27 26 30 34 39 42 42 44 49 54 53 45 39 43 48 42 39 41 42 51 66 69 69 76 80 81 86 88 84 83 88 91 83 75 75 78 76 80 90 92 87 84 85 85 82 80 75 70 67 64 59 57 55 56 67 77 75 71 72 71 69
26 21 19 22 25 29 32 34 38 43 42 40 39 34 37 53 55 37 35 54 63 53 42 35 31 32 30 26 28 31 32 36 39 37 38 44 47 43 36 36 39 39 38 37 36 42 51 51 55 70 72 65 74 86 81 76 85 91 85 81 80 75 74 83 91 89 83 82 85 86 86 81 73 67 65 65 61 58 57 59 67 75 74 70 70 68 66
29 23 19 19 21 26 31 32 34 39 40 39 37 34 39 48 45 32 32 43 49 54 61 52 34 30 31 27 26 30 31 31 33 33 32 33 36 39 37 35 37 38 37 38 38 37 39 43 55 71 70 55 59 76 80 77 81 85 86 89 84 69 68 83 93 93 90 88 86 85 83 80 76 70 65 62 62 63 64 66 70 73 73 70 68 66 64
31 26 21 18 17 21 26 30 33 35 36 37 36 35 41 46 37 27 29 35 41 56 69 57 37 31 31 25 24 29 32 31 30 31 32 30 31 34 34 32 35 34 33 37 37 34 42 57 70 78 72 56 57 74 78 74 77 83 85 85 79 69 69 80 92 98 95 90 87 83 78 78 79 76 70 65 63 65 69 72 73 73 72 70 68 67 65
32 28 24 19 16 17 20 24 30 32 33 36 34 33 43 49 37 27 27 29 35 49 55 45 35 33 29 24 24 27 29 30 29 29 30 30 30 31 32 33 32 28 30 37 35 35 54 71 73 71 67 59 63 74 73 69 76 84 81 72 68 74 81 86 92 99 97 92 88 82 78 81 84 79 74 72 68 68 72 74 74 73 72 70 69 68 67
33 29 26 21 17 16 16 18 24 27 30 34 32 32 46 54 44 34 30 27 30 41 44 39 36 35 29 24 24 26 28 29 28 27 28 30 30 29 29 31 32 31 32 34 36 51 74 78 63 56 58 59 66 72 72 74 80 81 75 68 66 73 81 82 87 94 91 82 77 75 76 83 84 77 74 74 71 70 73 74 74 74 72 70 69 69 68
34 30 28 24 18 15 15 16 19 23 26 29 30 31 42 53 53 45 36 31 30 31 36 44 45 37 29 25 24 24 25 28 30 29 27 28 29 29 28 29 31 35 38 37 42 57 69 62 51 50 52 52 62 74 80 84 86 80 72 66 62 62 66 67 71 78 78 73 71 69 67 71 75 74 73 74 72 71 72 74 74 73 72 69 67 67 67
34 30 28 25 19 16 15 15 17 20 21 24 29 31 34 42 50 45 38 38 33 24 34 56 59 41 27 25 26 25 23 26 29 29 27 28 29 28 28 28 30 33 34 37 44 51 52 48 46 49 47 45 57 75 83 85 86 79 69 64 62 61 63 63 63 64 67 70 71 66 60 63 71 73 72 73 73 71 72 74 73 72 71 69 67 66 66
32 29 26 25 21 16 14 16 18 20 19 20 27 33 34 36 41 40 40 43 34 25 40 60 57 39 27 22 22 24 24 25 28 28 28 29 30 30 30 29 30 31 32 34 38 42 45 48 49 49 45 42 56 78 86 85 85 79 66 62 65 64 64 64 60 58 63 68 68 66 65 67 71 73 74 74 74 72 73 73 73 71 70 67 66 66 65
31 29 25 24 21 15 14 17 18 19 20 20 23 29 30 31 36 43 50 48 33 30 48 60 53 46 39 26 21 26 26 23 26 29 28 27 28 30 30 28 29 31 32 33 36 39 44 49 51 52 48 44 59 86 95 89 87 81 66 61 66 65 62 60 58 59 64 66 66 73 79 78 72 70 72 73 72 72 73 73 72 71 70 68 67 66 65
29 28 24 23 21 15 13 17 19 21 21 19 20 22 21 25 39 53 57 47 30 28 45 56 53 48 39 24 19 24 25 24 26 26 25 27 28 28 27 26 28 29 30 33 38 41 43 44 46 50 49 47 63 88 94 86 83 79 67 63 67 65 61 59 59 62 67 65 61 65 73 76 71 67 68 71 71 71 72 73 73 72 70 68 67 66 65
27 27 25 22 19 15 14 16 19 22 22 18 18 19 19 31 49 56 51 41 31 31 45 54 49 43 39 36 34 29 22 21 26 27 24 24 26 26 25 24 27 30 33 36 37 39 42 45 48 55 58 55 62 77 83 81 79 75 70 69 69 65 65 67 67 67 69 66 59 55 61 69 72 70 70 72 70 69 70 73 74 73 70 69 68 66 65
26 27 24 20 16 14 15 17 19 21 23 21 18 19 30 45 52 49 45 41 33 32 41 47 44 43 50 57 57 42 23 17 22 25 23 23 26 26 24 25 31 35 34 33 36 42 45 43 45 56 64 61 62 73 81 82 81 77 75 74 72 69 71 74 74 73 71 67 61 59 64 70 71 70 71 72 71 70 71 72 72 72 70 69 68 66 65
26 25 21 18 16 14 15 18 21 21 22 22 20 24 41 54 51 46 48 47 39 36 38 42 46 50 53 56 54 39 22 18 22 22 21 23 23 20 22 32 38 35 31 37 47 52 47 42 46 58 65 65 68 73 72 72 76 78 74 69 67 66 67 69 72 74 73 67 62 63 69 71 70 69 72 72 71 71 71 71 72 72 70 69 68 66 64
26 23 18 17 19 22 26 28 27 28 33 37 36 38 46 51 48 45 45 44 42 41 37 38 48 52 48 50 50 34 21 24 28 24 21 23 19 17 24 34 37 36 43 55 58 49 42 49 63 72 70 68 70 68 61 60 66 68 63 61 64 66 66 68 71 72 71 70 68 67 70 71 70 69 71 71 72 72 71 71 71 71 69 68 66 64 62
22 20 26 32 35 40 47 47 44 45 49 50 47 43 40 39 39 37 35 37 45 46 39 36 41 40 38 46 47 31 22 32 35 26 21 22 21 19 22 27 33 43 54 58 50 40 45 64 79 81 77 73 68 63 61 63 63 59 56 58 62 65 66 69 71 70 72 76 77 72 71 73 72 70 70 71 71 71 70 70 70 69 68 67 65 62 60
23 22 40 56 56 53 56 59 57 54 51 48 46 40 36 37 39 36 35 42 50 52 50 49 43 36 39 50 49 31 22 33 42 38 31 26 21 20 25 30 34 41 49 51 46 43 51 67 78 82 85 84 74 66 66 68 65 62 61 61 61 63 63 65 66 65 66 69 71 69 68 70 70 68 68 69 70 70 69 68 68 68 67 65 62 58 55
25 25 42 61 64 57 54 53 53 50 45 44 45 39 33 37 40 36 37 44 47 46 50 53 46 36 34 42 45 34 23 27 37 41 38 32 25 21 28 35 33 34 44 52 51 52 60 69 74 82 89 86 74 66 67 69 66 65 65 64 63 62 60 60 62 63 62 62 64 66 66 66 65 63 63 65 68 69 68 67 67 65 64 63 61 56 51
35 37 46 54 55 53 50 47 46 46 42 41 45 45 40 40 39 34 35 45 48 42 37 36 34 30 28 29 33 31 26 27 31 28 27 31 28 21 26 33 31 33 44 49 49 58 69 71 72 83 88 76 62 61 66 68 66 66 65 64 63 61 59 60 64 66 64 64 66 68 68 67 65 62 60 62 66 68 67 66 65 63 61 61 60 55 50
53 56 59 55 45 43 47 46 42 41 41 42 48 52 49 45 40 33 33 41 43 36 29 25 24 27 29 28 27 26 28 31 28 21 21 26 23 23 35 43 35 31 39 45 46 52 58 62 74 86 77 58 52 60 66 64 64 65 63 61 60 60 62 65 68 68 66 65 66 68 69 68 66 64 61 61 65 68 66 64 63 61 60 59 59 56 51
61 63 68 65 50 42 47 47 41 42 49 52 55 57 54 49 46 42 41 41 36 26 23 25 26 27 30 31 26 25 28 28 22 20 23 24 22 28 40 40 31 28 33 39 42 43 46 61 80 79 57 45 52 60 60 61 62 61 59 59 59 60 61 63 65 67 66 65 65 67 68 68 66 64 62 62 65 67 65 62 61 59 56 56 56 54 50
68 71 79 80 65 51 48 45 40 45 54 56 55 56 54 53 55 54 50 44 36 26 24 27 28 29 35 35 27 22 25 26 21 20 22 24 29 35 35 33 37 39 34 34 41 44 46 59 68 56 43 48 57 56 55 60 61 58 57 60 61 62 61 60 62 65 66 66 66 67 68 67 66 64 63 64 66 66 64 62 59 54 50 50 50 47 43
75 81 85 82 68 52 42 37 39 47 54 56 59 65 67 68 70 65 50 38 32 28 26 28 29 30 33 33 28 25 25 24 23 26 31 33 35 35 31 35 47 50 42 39 41 36 38 54 64 55 46 51 53 51 55 60 59 56 58 60 60 62 63 62 63 65 66 67 69 69 69 69 65 62 63 66 66 64 62 59 54 49 44 43 42 40 40
79 83 79 72 62 50 39 38 48 55 52 48 54 61 63 63 62 53 38 29 29 30 28 27 28 29 30 29 28 26 22 20 24 33 37 35 32 31 28 29 35 40 41 41 40 39 49 67 67 48 36 40 45 49 54 58 57 58 58 57 59 62 63 61 62 63 64 66 69 70 70 68 65 63 65 66 65 63 60 54 48 45 43 41 41 40 40
76 75 74 73 70 59 44 43 53 54 43 37 41 44 42 39 37 32 29 30 33 34 32 30 29 30 31 31 31 30 26 24 26 29 28 27 33 39 39 37 41 45 39 33 43 66 80 69 42 22 24 36 44 49 53 56 58 58 57 56 59 61 61 60 62 62 62 64 67 68 68 66 63 63 66 67 64 62 58 51 45 42 42 41 41 40 40
74 71 77 83 83 71 57 55 60 56 44 41 45 42 36 34 33 31 32 34 33 34 36 36 34 34 34 36 39 40 35 27 25 27 29 31 35 40 41 44 51 54 46 45 63 84 79 47 20 16 26 35 40 46 52 55 54 53 54 57 59 60 60 62 62 61 60 61 63 66 67 64 62 62 65 65 63 60 57 52 46 42 40 41 41 41 41
76 76 81 82 80 74 66 63 66 62 52 44 42 39 37 37 34 32 34 36 33 33 37 38 36 35 37 38 40 41 36 31 29 31 32 34 38 43 48 48 45 47 58 73 80 68 43 21 15 19 25 31 39 45 48 50 50 49 50 54 56 58 60 61 61 61 60 59 60 64 66 63 60 61 62 62 60 57 55 54 49 44 41 41 41 40 41
76 77 76 72 72 73 67 64 70 74 66 53 44 42 44 43 38 36 38 38 33 31 34 36 37 38 39 40 42 42 42 42 39 33 33 42 48 45 42 45 51 60 71 75 60 34 17 15 17 18 21 30 39 41 43 47 49 48 47 50 53 56 58 58 58 58 57 55 57 61 62 61 60 59 58 57 56 53 53 54 51 45 42 41 41 40 41
72 72 66 62 66 69 65 64 71 77 72 61 52 48 48 46 42 39 38 36 34 37 41 43 45 44 42 43 44 40 35 36 37 36 40 51 54 44 40 54 70 71 57 39 23 16 17 18 18 18 20 26 32 36 41 44 46 46 48 49 51 53 56 57 57 55 53 53 55 56 56 56 56 55 53 52 51 50 51 54 52 47 42 41 40 40 39
74 71 63 60 62 61 59 59 61 62 62 60 54 50 49 46 42 39 37 34 36 42 46 47 49 50 48 47 46 39 32 34 40 42 43 48 52 53 56 62 59 44 27 18 17 20 21 20 19 20 21 21 25 31 37 40 44 47 49 49 50 52 54 56 56 54 52 52 53 54 54 54 55 54 51 50 50 50 50 50 48 46 43 41 40 39 37
Wind_Speed
19 19 17 16 14 12 11 11 9 7 7 7 7 5 4 4 4 5 10 12 11 5 0 1 1 2 2 4 6 9 9 8 9 10 8 2 0 2 3 3 3 3 3 2 2 4 4 5 6 3 3 5 8 13 18 18 13 8 5 4 4 3 2 1 3 4 3 6 5 2 4 5 4 2 3 6 5 4 6 5 4 3 3 3 3 1 4
20 20 20 19 16 13 12 12 10 10 9 6 5 4 4 5 6 6 9 11 9 3 1 1 1 2 4 5 7 10 10 9 9 7 4 2 0 1 3 2 2 2 3 3 3 4 4 5 7 5 2 6 14 18 21 18 10 6 7 6 6 5 1 2 1 2 1 3 2 1 2 2 3 3 3 5 5 7 5 3 4 2 3 4 4 3 3
20 21 22 20 18 15 12 11 11 11 10 7 4 4 3 4 5 4 6 10 9 5 2 1 2 4 6 6 7 8 7 7 11 9 5 4 3 2 3 4 3 3 3 3 3 4 4 4 7 6 3 3 9 15 19 16 9 7 10 13 12 6 3 3 4 4 3 5 5 4 4 2 1 2 4 4 6 9 6 3 4 1 3 4 4 3 2
21 22 22 22 20 16 12 9 10 9 9 7 5 4 2 2 2 1 2 5 8 8 6 4 3 4 5 5 5 5 3 5 9 7 4 6 5 4 4 5 3 3 2 1 2 1 1 3 4 5 5 3 3 12 21 17 12 12 14 18 14 3 2 4 6 6 6 6 7 5 5 5 2 3 6 5 6 8 7 5 4 4 4 3 3 5 7
21 22 23 22 21 17 12 8 7 7 7 6 5 4 3 2 1 1 2 2 5 8 9 7 4 4 3 3 3 5 5 5 6 4 1 5 5 3 4 3 1 2 2 1 2 2 4 4 3 2 5 3 2 9 19 17 16 16 14 17 12 4 2 5 5 4 5 4 6 4 4 5 4 5 7 5 4 6 8 6 5 6 6 2 5 10 12
22 22 23 23 21 17 12 10 7 5 4 4 3 3 2 2 0 2 2 2 3 3 6 7 6 7 5 2 3 4 6 5 3 3 4 6 5 1 1 3 2 3 2 1 1 2 4 4 1 1 2 1 4 2 7 10 17 17 11 12 9 5 3 5 5 2 3 5 4 1 7 5 3 4 4 3 2 5 9 7 6 8 6 5 10 16 15
21 22 23 23 21 17 13 11 7 2 1 2 3 2 1 1 1 1 1 2 3 4 7 5 4 7 6 3 3 3 5 5 3 2 3 5 4 1 2 5 6 7 3 3 2 2 2 1 2 2 1 2 3 2 1 4 11 13 8 6 4 4 2 4 5 4 5 7 7 1 8 7 4 5 4 2 3 4 5 3 3 6 5 6 15 15 10
20 22 23 23 21 17 13 11 8 3 1 1 2 2 1 2 3 3 2 3 5 7 7 3 1 3 4 3 4 3 3 4 4 3 2 3 4 2 1 5 7 7 4 4 3 2 4 3 2 2 2 1 2 2 3 2 5 8 6 4 2 3 2 2 4 4 5 6 7 3 8 9 6 5 7 6 5 5 5 4 4 7 6 8 14 11 3
20 22 23 23 22 16 11 9 8 5 2 2 2 2 1 3 5 5 3 2 3 3 3 1 0 1 1 3 3 3 3 2 5 5 5 6 4 3 3 6 6 5 5 6 3 2 4 4 2 3 6 7 4 1 2 2 7 7 4 3 2 4 3 0 4 5 3 4 5 4 6 10 8 4 7 6 3 3 3 3 2 5 10 12 12 8 5
19 21 23 24 23 18 12 8 7 6 4 2 3 3 3 4 5 4 3 2 2 1 2 2 1 1 2 2 2 3 5 3 3 4 5 6 8 5 5 5 4 3 4 4 3 1 3 7 5 5 15 20 11 4 6 6 6 6 4 2 1 4 6 2 3 4 2 4 2 4 3 6 2 2 2 2 2 2 3 1 2 5 12 12 7 7 9
18 20 22 23 23 20 15 11 8 7 5 3 2 2 2 3 5 6 3 1 1 2 1 1 1 1 2 3 3 3 5 4 1 2 3 4 6 9 10 5 2 2 0 1 3 4 10 11 8 8 18 23 15 12 15 15 10 4 4 4 2 4 7 3 2 4 3 5 4 4 2 3 4 5 3 4 3 4 5 2 2 3 3 3 3 7 14
17 19 21 22 23 22 19 15 11 9 8 6 5 4 4 5 6 7 4 2 2 1 1 3 4 4 5 6 4 4 7 8 6 7 5 6 10 15 13 2 2 1 1 2 0 7 9 4 1 4 8 13 15 17 17 14 13 11 5 5 6 5 6 3 1 4 3 2 4 3 3 4 4 5 3 4 5 7 8 5 4 4 3 0 7 13 18
16 18 19 21 22 22 20 18 15 12 11 9 8 7 8 8 6 7 6 4 2 1 1 6 8 7 8 8 5 6 10 12 12 11 10 8 9 12 10 4 4 3 5 5 2 8 5 3 3 3 6 6 9 11 11 10 12 13 11 6 6 7 5 3 2 2 2 2 3 2 3 4 4 5 3 3 6 7 7 4 3 3 3 3 9 12 14
15 16 18 19 20 21 20 19 17 16 14 13 11 9 8 9 8 8 7 3 3 4 4 5 6 6 6 6 4 5 8 9 8 7 7 7 8 10 12 9 6 5 7 5 2 6 3 2 3 3 5 5 5 4 5 6 8 10 10 7 3 7 6 3 3 2 2 3 2 0 2 4 2 2 3 4 5 5 6 3 2 3 2 3 10 13 14
14 15 16 17 18 19 20 20 19 18 16 14 12 10 9 9 7 8 7 4 4 5 4 3 4 5 5 6 5 4 4 4 3 2 4 6 7 10 11 7 4 5 5 2 3 4 3 3 3 2 2 2 2 2 3 3 5 6 6 5 4 5 4 5 4 1 2 4 2 1 2 3 5 6 7 7 5 6 6 5 2 4 2 7 13 14 15
13 13 14 15 16 17 18 19 19 19 19 17 14 11 9 8 6 7 8 6 3 3 6 7 9 7 5 6 7 3 1 2 2 2 4 4 4 5 7 5 4 3 2 1 3 3 3 3 2 2 1 1 2 1 2 2 3 6 4 5 8 8 5 4 6 3 2 4 3 3 3 4 6 7 6 7 9 8 6 4 3 5 9 16 16 16 18
13 12 12 13 14 15 16 17 18 19 20 20 17 12 9 8 7 6 7 6 4 6 8 9 9 7 4 3 5 3 0 1 1 1 2 3 4 5 5 4 2 1 1 2 3 3 4 3 3 3 1 2 2 2 0 2 1 4 5 6 7 6 5 4 5 4 3 4 3 3 3 4 5 5 6 9 12 9 6 1 6 8 17 25 23 21 24
12 12 12 12 13 14 15 16 17 19 20 21 18 12 9 10 9 5 7 7 5 6 10 11 7 6 3 1 2 3 2 2 1 0 2 3 3 5 7 5 3 2 3 2 2 2 3 2 2 3 1 2 1 2 2 2 2 2 1 3 3 4 4 3 4 3 3 4 2 2 3 4 4 6 12 14 9 6 4 4 7 16 24 29 30 29 30
12 12 11 11 11 12 14 15 16 18 19 21 19 13 10 12 10 6 8 7 6 7 13 10 5 6 7 4 1 4 3 2 2 1 1 1 4 7 6 3 2 2 2 3 3 2 2 1 1 3 3 1 1 2 2 2 2 2 1 2 2 2 2 2 3 3 3 3 2 0 3 4 5 9 13 12 6 3 5 4 12 27 30 28 32 32 31
12 11 11 11 11 11 12 14 15 16 18 20 20 16 12 13 12 9 8 8 9 12 14 12 8 10 9 6 3 6 8 2 2 1 2 1 6 9 4 1 2 3 2 3 2 1 2 2 0 2 2 1 1 1 1 1 1 2 3 2 2 3 2 2 2 3 3 2 2 2 3 5 16 18 7 4 3 4 6 7 16 29 33 31 34 33 32
12 12 11 11 10 10 11 12 13 15 16 17 19 18 14 13 14 12 10 8 10 12 10 14 14 12 7 3 7 2 7 8 5 2 2 4 6 5 2 3 3 1 1 2 2 0 1 2 1 1 2 1 0 1 2 0 1 1 2 2 1 1 2 2 2 3 4 2 3 4 4 6 19 16 3 5 6 3 8 18 20 23 29 33 35 34 34
13 12 11 11 10 10 10 11 12 13 14 16 17 18 15 12 13 15 13 10 9 12 10 14 15 11 8 5 2 2 2 5 8 5 5 6 6 2 2 4 3 2 1 2 2 1 1 2 2 2 2 2 1 1 2 3 1 2 1 1 2 2 3 4 2 2 4 3 5 4 4 4 12 6 0 9 10 2 8 23 28 28 31 34 35 34 35
13 13 12 11 11 11 10 11 11 12 13 15 15 17 16 11 12 16 16 12 12 14 12 12 12 12 10 10 11 8 3 2 6 7 6 6 6 3 3 3 3 3 1 2 1 2 3 2 2 3 2 2 3 3 2 1 2 2 0 0 2 2 1 3 2 1 1 1 1 1 3 2 7 4 4 13 13 6 9 20 29 32 33 34 36 36 36
13 13 13 12 12 12 11 11 11 11 12 13 14 17 16 10 10 16 15 12 12 12 9 9 10 12 12 10 11 13 10 6 4 6 6 4 4 3 3 3 4 4 1 3 2 1 3 2 2 3 2 2 3 3 2 1 2 2 2 1 3 2 1 3 3 2 1 1 2 3 3 3 6 6 8 12 12 11 13 20 27 31 32 34 37 37 37
14 13 13 13 13 13 12 13 12 11 11 11 12 15 14 8 9 14 13 11 9 6 4 6 8 8 9 7 8 10 11 10 7 4 4 5 4 3 4 5 5 4 3 5 5 1 4 2 1 2 3 2 2 2 2 2 2 2 3 1 3 2 3 2 2 3 2 2 2 2 4 4 5 8 11 13 14 15 17 22 28 31 32 34 37 37 38
14 14 14 13 13 13 13 14 14 13 12 11 11 13 11 5 6 12 14 13 10 4 2 5 7 7 7 7 8 9 8 9 9 6 5 7 6 4 4 5 5 5 3 4 2 3 5 3 2 2 2 2 2 2 2 2 2 2 2 2 3 2 3 3 2 4 2 2 2 5 5 3 2 6 11 15 17 19 21 24 28 31 33 35 36 36 38
15 14 14 13 13 13 13 14 14 15 13 11 10 11 8 2 2 9 15 15 10 3 1 4 10 12 9 5 5 8 7 7 8 8 7 7 7 5 4 5 5 4 2 1 2 3 4 4 3 1 2 2 3 3 1 2 3 3 1 2 1 2 3 2 3 3 1 3 6 9 5 1 3 9 14 16 18 21 24 26 29 32 35 37 37 35 36
16 15 14 14 13 13 13 13 14 15 15 12 10 9 7 4 2 6 13 14 11 6 5 10 14 13 7 3 3 6 7 7 7 9 9 8 6 6 5 4 3 1 2 2 2 3 3 3 2 0 1 3 4 2 2 2 3 2 0 1 0 3 6 6 5 4 3 6 14 13 4 4 9 14 15 17 18 21 25 28 30 33 35 38 38 37 37
16 16 15 14 13 13 13 12 13 15 16 14 10 8 7 6 6 3 10 14 14 11 9 10 11 8 5 6 7 6 5 7 8 9 9 8 7 7 6 5 5 5 5 7 6 4 3 2 3 2 2 2 3 1 1 3 2 1 2 2 3 4 11 13 9 4 1 10 20 14 3 8 16 17 16 17 18 21 25 29 31 34 35 37 38 38 39
16 15 15 15 14 13 12 12 13 15 15 13 10 8 6 4 4 4 10 13 13 13 9 5 4 6 9 10 8 5 5 6 8 7 8 9 9 9 8 7 7 7 7 8 6 3 2 2 3 4 4 3 3 2 1 2 1 3 3 2 3 5 12 14 8 1 3 15 20 11 6 15 20 17 16 17 17 20 25 29 32 34 35 36 37 37 37
16 16 16 15 14 13 12 11 12 14 14 12 9 6 3 1 1 6 10 12 13 13 8 4 5 8 10 9 8 7 7 6 6 5 4 6 8 9 9 8 8 8 8 7 6 4 2 2 3 3 4 5 4 3 2 3 1 3 4 3 1 6 12 12 7 4 8 17 18 12 13 22 23 19 18 18 17 19 24 28 32 33 33 34 35 35 36
17 16 16 14 14 13 12 11 12 14 14 13 10 9 7 5 5 8 9 9 12 11 6 3 4 4 5 7 11 11 9 7 6 6 5 5 5 6 7 8 8 9 8 7 5 3 3 3 2 3 4 4 4 3 3 3 3 4 4 2 3 9 11 8 7 9 15 22 20 16 17 22 23 20 20 20 19 19 22 27 30 31 31 31 32 33 34
18 17 15 14 13 13 12 11 12 13 14 14 13 11 10 8 7 6 6 8 10 9 5 2 1 1 3 8 11 10 7 6 5 4 3 4 5 4 6 7 7 7 7 5 3 2 2 2 3 4 5 4 4 3 2 1 3 4 3 2 7 10 9 8 11 15 20 23 20 14 16 23 24 21 21 22 21 19 20 25 29 30 30 30 31 32 33
18 17 15 13 12 12 11 11 11 12 13 13 12 9 8 8 8 6 5 6 7 6 4 2 1 1 4 6 5 4 5 5 3 1 1 4 4 3 4 5 5 5 6 5 3 3 2 2 2 2 3 4 4 3 0 3 4 4 5 6 10 11 11 13 17 20 23 23 18 13 19 26 26 22 24 25 23 20 21 24 29 30 30 30 32 33 34
18 16 13 12 10 10 11 10 10 11 11 11 10 8 8 9 9 6 4 5 4 3 2 2 1 1 3 3 3 4 5 5 2 1 2 4 4 4 4 4 3 3 3 4 3 2 2 2 1 1 2 4 2 1 3 6 6 7 9 11 14 16 16 17 18 21 22 21 17 16 22 27 26 26 27 27 25 25 25 26 29 30 31 31 33 33 33
17 14 11 9 8 8 8 8 8 8 8 9 9 7 8 9 9 8 7 7 6 4 3 2 0 1 1 1 3 4 4 4 2 2 2 2 2 3 4 3 3 2 3 3 3 2 2 2 1 1 3 1 1 3 5 10 13 14 14 15 17 17 18 19 22 22 20 17 18 21 25 27 27 28 28 26 25 27 27 28 30 31 32 33 33 33 33
16 12 8 6 6 5 5 4 5 5 5 5 6 6 8 9 10 9 10 9 9 9 7 3 2 3 4 2 3 3 2 3 3 2 3 2 2 2 3 3 1 2 3 3 2 2 3 3 2 2 1 3 4 8 8 14 20 18 16 17 17 17 18 21 24 23 19 18 21 25 26 27 28 28 27 26 27 28 28 29 31 31 32 34 34 33 33
13 7 4 4 3 3 2 3 4 5 5 4 4 4 5 6 6 6 6 6 6 8 8 5 4 5 5 3 2 4 3 2 2 1 2 2 2 2 3 2 1 1 2 2 2 3 4 3 3 2 2 5 6 8 7 16 21 17 15 17 18 18 19 21 23 23 22 23 24 26 27 28 29 28 27 27 28 28 29 29 29 29 31 33 33 31 30
11 5 3 3 2 2 1 2 4 5 4 4 4 4 3 3 2 2 3 4 4 5 6 6 6 7 8 5 5 7 5 2 3 1 0 1 1 1 1 1 0 2 2 2 3 1 3 2 2 2 3 5 4 2 9 17 19 17 17 18 19 18 19 20 22 22 21 21 22 24 27 29 29 28 28 28 27 27 27 28 28 29 31 32 31 29 30
8 5 2 2 2 2 2 3 4 4 3 3 3 2 1 2 2 2 2 2 1 3 5 5 6 8 10 8 6 5 5 3 1 1 2 2 1 0 1 1 0 2 2 2 3 1 2 1 2 2 2 4 4 7 13 17 18 18 18 18 19 18 16 17 19 20 18 19 20 23 26 28 28 27 26 26 26 26 27 27 27 29 31 31 29 29 30
8 7 4 4 4 4 3 3 3 3 2 1 1 1 1 1 3 2 1 1 1 3 5 5 3 4 8 11 8 5 5 5 3 1 1 1 1 1 2 0 0 2 1 3 3 2 4 1 1 2 4 6 9 13 16 17 18 19 18 16 16 15 14 15 19 20 19 19 21 24 26 28 28 26 25 24 24 25 25 26 27 28 29 29 28 28 29
12 11 8 7 6 5 3 3 3 2 0 1 0 1 1 1 2 2 1 2 2 2 4 5 3 2 4 7 7 5 5 5 3 1 1 1 0 1 1 1 2 2 1 3 0 4 3 1 2 4 6 9 14 18 20 20 20 19 18 15 14 14 15 15 18 18 17 17 20 25 27 27 28 27 25 24 24 24 24 24 26 27 27 27 27 28 29
11 10 8 6 4 2 2 1 3 2 0 1 1 1 2 1 1 1 1 3 2 1 1 2 3 3 2 4 3 3 4 4 2 0 2 2 1 2 3 2 1 1 2 0 3 3 0 2 3 5 6 13 19 21 21 22 21 19 18 16 15 15 14 14 15 16 15 15 18 22 25 26 27 26 24 24 24 25 24 23 23 24 25 27 28 30 30
8 6 5 5 3 1 1 1 2 3 0 0 1 2 1 2 2 1 1 2 2 2 4 7 7 5 3 3 2 3 4 3 2 1 2 1 1 2 2 1 2 2 0 1 2 0 2 4 5 5 6 15 22 22 21 22 22 21 19 18 17 16 15 15 15 16 17 17 18 21 24 26 26 25 24 24 23 24 24 23 22 22 25 28 30 32 32
5 3 3 3 1 1 1 1 1 1 1 1 2 3 3 2 3 2 1 4 5 7 12 14 10 6 6 6 3 2 3 2 2 1 1 1 2 1 1 2 1 1 2 1 1 1 2 4 5 6 10 19 24 24 22 23 23 22 20 19 18 18 18 18 17 18 18 18 19 21 23 25 25 25 25 24 23 23 23 22 23 25 29 32 33 33 31
3 2 2 1 1 1 2 1 1 1 1 1 1 1 1 2 4 3 6 11 13 15 19 19 14 9 7 5 3 3 2 2 2 1 1 3 2 1 1 1 1 2 2 1 2 2 4 5 6 8 14 21 24 24 24 24 23 22 22 22 21 21 20 19 18 18 18 18 19 21 23 24 24 24 25 24 23 23 22 21 23 28 33 34 33 31 30
2 2 2 1 1 1 1 2 1 1 1 3 4 4 5 6 5 7 12 17 18 19 21 19 14 9 7 5 3 3 2 2 2 1 1 3 1 1 1 2 0 0 1 1 3 5 5 5 6 7 11 19 24 25 25 25 24 24 24 24 23 22 21 21 20 19 19 18 19 21 22 22 22 24 25 25 24 24 22 21 24 30 33 32 30 29 29
2 1 1 0 1 1 2 1 4 3 3 6 9 10 11 11 10 13 18 21 22 24 22 15 8 5 4 4 4 2 1 1 2 1 1 2 1 1 2 2 1 2 2 4 5 5 5 5 8 9 7 16 25 27 27 27 26 26 26 27 26 24 23 23 22 21 20 20 20 21 22 23 24 24 25 25 25 25 23 22 24 30 32 30 29 29 29
2 1 1 1 2 2 3 5 6 5 5 9 13 14 16 16 15 17 21 24 27 26 19 9 5 3 2 3 3 1 0 1 1 0 1 2 1 1 1 1 1 3 3 3 5 5 6 7 9 10 7 13 23 28 29 28 28 27 28 28 27 25 24 24 23 22 21 22 22 21 22 24 25 25 26 27 27 28 26 23 25 29 32 31 29 29 29
3 3 2 2 2 3 5 5 4 4 7 13 16 16 16 18 18 18 20 25 30 26 14 3 4 2 1 1 2 1 1 2 2 2 1 1 2 2 2 1 3 4 4 5 6 7 8 8 8 9 8 10 19 27 30 29 29 29 28 28 28 27 26 25 23 23 24 25 24 23 23 25 27 29 29 29 29 29 28 26 26 30 33 33 31 30 29
3 3 4 4 4 4 5 4 2 3 5 9 12 14 16 18 18 18 21 26 27 20 9 1 1 1 2 1 1 1 1 1 2 3 1 2 2 3 3 3 5 6 7 9 11 10 10 11 11 11 10 11 16 24 29 30 29 29 29 29 29 29 28 27 26 26 27 28 27 26 26 27 28 29 29 29 29 30 29 29 29 32 35 35 33 30 28
2 2 3 4 5 5 5 4 4 4 5 8 12 14 16 17 17 19 22 23 18 11 7 6 3 1 2 1 2 2 2 2 1 1 2 2 2 3 4 5 6 7 9 12 12 12 12 13 13 13 14 14 15 19 26 30 31 31 30 30 30 30 30 29 29 29 29 29 30 30 29 29 28 28 28 29 31 33 32 32 32 34 36 37 35 31 28
Wind_Direction
354 358 358 356 353 351 354 355 360 357 343 347 4 18 54 66 83 139 160 172 175 168 220 262 209 224 270 289 283 273 267 267 279 291 297 307 27 293 262 210 206 215 211 198 174 170 165 179 192 195 195 208 217 204 186 174 164 152 165 191 180 170 124 143 265 301 272 268 313 77 152 134 127 194 164 146 160 148 146 171 169 140 154 143 102 197 264
350 355 357 357 354 351 345 342 354 7 4 4 28 53 84 84 88 129 169 181 188 199 314 322 297 304 302 300 292 283 273 266 268 275 289 310 23 276 261 211 209 248 222 205 202 190 173 177 191 192 176 216 220 206 189 182 171 161 183 177 163 188 185 92 145 341 325 268 321 51 182 186 180 185 156 152 131 109 117 122 92 116 199 156 141 207 251
348 352 356 355 352 350 345 334 338 1 19 24 40 63 87 89 82 104 163 182 199 224 268 305 311 314 304 298 287 277 266 257 261 265 273 267 227 210 264 252 243 259 235 227 237 203 173 169 184 190 191 222 220 204 196 192 181 183 183 161 154 178 187 124 153 172 173 194 207 204 196 213 247 140 137 142 127 125 135 119 100 180 215 136 138 191 205
350 352 354 354 351 347 344 337 334 356 26 35 52 80 95 86 67 73 158 191 216 238 258 269 283 294 298 295 276 268 281 282 282 282 251 243 232 207 255 264 250 260 241 226 273 237 79 95 153 191 210 224 222 196 197 197 189 190 178 157 147 138 160 148 155 178 189 200 217 214 165 157 177 156 150 153 151 138 119 110 152 184 168 153 183 161 143
352 354 354 354 353 348 347 350 342 353 22 41 69 97 108 103 121 160 154 217 238 250 258 250 239 257 282 313 299 299 308 302 315 335 272 268 275 226 239 259 257 301 309 35 360 355 28 55 103 199 219 244 304 195 192 196 195 191 178 163 147 90 199 179 135 177 226 234 229 216 130 144 163 156 157 152 146 138 131 155 190 153 135 209 201 154 150
355 356 356 356 355 353 356 2 353 348 20 46 76 96 106 95 215 199 168 216 215 237 254 234 224 244 252 274 289 294 305 309 325 315 298 311 318 300 305 301 303 322 330 86 34 19 37 39 47 260 235 301 352 213 190 198 196 187 175 174 157 102 181 184 110 88 327 327 279 190 98 104 92 96 117 126 155 169 162 181 191 151 153 204 178 166 169
357 358 360 359 359 358 360 4 2 1 39 61 81 84 69 37 317 253 201 252 243 260 273 257 229 234 231 243 262 259 287 297 293 287 316 327 315 327 349 313 324 345 13 102 88 73 79 16 282 263 205 84 60 104 203 223 199 183 165 175 163 106 166 188 122 86 10 352 317 357 109 106 59 49 31 46 152 160 142 151 148 124 121 154 158 164 175
1 4 4 3 4 3 3 10 18 27 91 118 102 99 68 9 321 284 256 263 263 268 280 292 261 244 232 241 255 246 260 286 314 307 279 296 314 353 347 314 329 344 11 73 83 143 153 169 250 251 180 87 54 160 202 209 173 171 169 179 170 111 166 198 108 71 356 345 346 25 116 113 89 57 14 19 83 92 89 115 114 90 82 118 137 139 139
6 9 10 9 11 11 11 24 34 39 57 76 61 40 328 328 325 318 304 280 267 264 279 304 234 284 232 221 253 269 257 301 344 314 239 219 252 282 305 321 334 345 19 54 67 232 188 163 243 237 142 94 54 248 227 169 154 158 164 162 126 104 113 34 77 76 316 324 15 25 97 98 88 54 11 5 43 104 129 167 171 136 127 124 127 140 168
10 12 14 15 17 20 21 27 36 42 47 35 22 14 345 335 333 331 322 302 295 297 303 286 239 253 239 223 249 269 264 307 2 318 274 242 235 259 300 313 324 351 24 40 26 332 141 120 101 106 102 89 74 58 55 64 116 146 140 94 75 131 133 137 96 106 252 277 352 347 46 88 76 322 344 306 278 151 139 360 350 135 138 138 154 180 169
13 15 16 18 21 26 26 21 15 16 18 360 334 327 325 324 319 313 301 256 261 275 302 296 235 231 267 254 247 255 270 299 262 204 286 291 273 305 321 314 290 308 323 330 3 88 116 116 104 90 91 88 75 50 49 48 48 69 127 111 77 118 126 139 128 122 205 264 341 13 63 153 236 271 241 219 219 143 129 105 56 92 138 165 152 144 147
16 19 19 19 23 27 28 25 18 6 357 337 314 304 296 292 303 309 303 284 282 255 244 279 251 244 269 267 262 264 262 269 254 221 234 286 296 304 310 303 165 254 355 342 306 141 132 109 33 13 51 71 63 43 36 35 30 26 48 109 124 115 110 121 84 110 169 271 17 76 184 228 269 304 292 198 160 127 110 80 44 26 342 152 126 140 154
17 22 23 20 23 27 28 28 24 14 4 352 334 319 301 290 297 312 311 305 290 243 272 289 275 267 273 264 254 264 264 271 273 253 240 256 280 294 294 254 213 276 336 348 134 144 131 355 355 347 342 12 46 36 18 16 25 24 21 46 123 132 125 117 69 84 137 59 50 153 230 284 327 342 334 140 133 125 109 68 360 347 330 165 142 143 150
15 22 25 22 22 26 29 31 29 20 14 5 354 341 319 303 298 308 321 330 290 281 286 295 296 303 305 289 269 274 283 291 287 258 240 237 242 267 281 271 262 297 320 329 75 108 95 18 31 10 335 358 36 19 346 357 21 29 19 9 81 123 126 116 74 56 129 110 83 332 327 317 315 317 249 182 165 168 148 135 250 266 293 169 147 141 143
9 18 24 24 23 24 26 29 28 22 15 5 353 342 331 320 304 301 309 313 301 293 273 271 312 331 332 327 324 314 316 327 320 264 262 250 244 265 278 281 297 310 308 330 67 75 77 83 70 24 355 35 53 335 327 341 351 14 27 21 46 83 118 141 121 83 104 106 90 49 35 278 239 218 223 222 212 192 144 111 249 258 211 166 154 146 146
360 10 17 21 22 23 24 25 24 19 14 7 356 339 325 321 312 298 292 287 296 299 288 297 310 310 313 329 330 326 328 333 341 335 308 295 295 294 288 298 318 298 276 68 73 67 69 84 108 137 164 194 178 217 356 11 330 328 358 41 50 53 62 98 103 107 129 114 127 170 186 249 232 204 214 219 200 182 123 83 261 234 168 160 157 150 151
349 357 6 13 17 19 21 21 20 17 14 11 4 351 336 328 321 296 276 273 267 276 300 323 320 301 303 340 326 315 182 309 342 55 332 310 311 311 316 337 3 348 12 63 65 59 78 100 103 108 175 256 157 143 144 99 60 314 333 17 37 42 33 57 98 134 158 128 134 199 216 251 233 191 178 189 183 160 112 82 247 200 165 162 162 158 157
340 344 352 2 8 12 13 15 16 15 16 14 9 3 354 343 332 298 275 275 254 274 321 340 325 302 320 323 283 302 310 305 343 196 277 298 306 305 322 352 27 358 3 70 99 67 79 108 115 116 150 288 118 142 188 151 148 232 307 26 36 35 25 64 117 132 142 134 140 259 253 249 236 178 168 171 163 140 160 236 211 173 165 166 164 161 161
332 333 340 348 355 3 4 7 10 11 13 15 11 10 5 354 348 320 290 274 241 284 330 346 330 325 335 303 306 29 360 252 178 55 310 328 337 323 320 347 25 348 5 67 91 90 87 93 160 123 114 303 279 143 163 165 168 178 130 91 113 103 49 83 116 117 128 133 117 349 272 242 168 148 164 168 149 180 219 222 165 162 163 163 163 163 163
326 325 329 333 341 351 353 357 2 4 8 13 12 13 10 357 353 343 314 292 272 296 337 4 353 341 339 285 249 40 27 351 198 132 138 228 326 347 11 40 343 352 22 57 58 89 121 132 196 106 116 218 231 118 128 298 269 177 153 151 172 157 129 131 159 147 120 52 81 129 276 211 151 139 153 192 182 204 187 139 150 162 161 160 162 164 164
321 318 320 322 326 336 341 346 352 354 360 6 9 13 11 356 352 352 337 311 281 285 337 7 355 352 5 279 243 268 19 10 355 315 256 280 310 358 82 215 269 313 159 126 113 181 139 144 170 123 125 154 83 126 155 108 308 230 150 138 183 164 136 169 222 180 133 100 174 185 280 207 162 148 153 194 177 184 155 144 148 161 164 162 162 164 166
317 313 313 313 314 320 327 333 339 344 350 356 2 10 11 357 351 351 342 324 293 286 322 3 8 15 35 32 353 247 279 347 359 349 313 296 299 306 256 257 270 267 226 125 112 186 139 132 154 143 138 133 96 124 140 126 198 262 360 93 186 214 175 166 176 178 160 174 211 229 304 219 186 183 107 167 167 157 161 160 159 164 169 168 164 163 165
314 310 308 306 306 309 312 319 326 332 340 347 355 3 5 359 353 350 345 340 329 322 335 8 24 26 28 37 41 35 5 329 4 8 346 301 290 301 295 292 321 313 304 74 94 177 155 149 161 142 153 173 133 112 106 126 193 218 181 148 237 253 169 136 114 169 202 168 237 296 13 152 192 194 145 163 171 167 169 171 167 166 170 170 166 163 162
312 309 306 301 300 300 301 307 313 318 327 337 347 355 357 360 359 355 352 346 338 336 344 357 10 20 22 24 29 30 31 25 5 12 17 339 299 303 310 318 330 318 324 24 357 180 138 136 154 114 117 182 149 124 139 180 211 184 134 24 294 269 137 92 81 110 157 331 334 347 27 115 158 154 149 159 167 170 174 175 171 168 168 169 166 163 160
310 308 305 300 297 294 293 297 301 305 317 326 338 348 353 2 11 8 4 352 336 328 328 331 343 12 20 12 15 26 30 25 14 12 20 4 338 315 311 321 320 292 294 340 335 201 134 114 126 118 128 179 180 154 157 175 199 164 136 184 251 209 151 116 75 91 139 240 269 62 81 113 139 154 163 164 163 168 172 171 169 168 166 166 165 163 160
310 306 303 300 296 291 287 290 292 295 304 314 331 344 347 1 28 22 16 5 348 318 271 304 323 348 2 8 16 19 21 25 21 11 7 8 2 341 319 321 317 292 302 4 29 141 130 102 97 118 134 164 158 153 168 173 144 111 126 207 210 139 139 155 106 82 73 265 184 120 99 79 123 158 167 168 167 167 166 167 168 166 164 163 162 163 162
310 306 302 299 297 291 287 287 286 288 294 303 323 338 331 282 61 30 22 15 1 337 262 290 309 329 344 355 9 13 17 21 13 4 2 6 9 4 341 320 308 282 248 91 91 111 100 78 75 113 162 137 101 95 127 142 115 89 84 218 166 107 138 139 104 114 196 231 183 165 143 101 172 164 160 164 168 166 162 162 164 164 164 162 159 159 161
312 307 301 297 296 293 289 286 283 283 288 294 311 332 323 259 231 19 19 14 4 339 289 289 302 320 341 349 345 4 11 5 360 359 358 360 15 26 14 346 329 269 183 145 95 67 67 81 97 142 166 116 91 53 18 73 81 74 151 239 249 158 174 174 154 163 226 204 178 169 133 110 155 161 159 164 170 167 162 162 164 163 163 163 160 157 158
311 307 301 295 294 293 290 289 284 280 284 292 303 322 318 270 246 320 360 2 357 342 316 305 312 325 337 332 330 337 340 333 334 351 7 19 29 28 24 30 49 72 98 104 96 77 71 107 115 69 43 91 116 102 35 70 86 225 231 275 301 223 194 187 171 144 187 179 173 172 149 144 158 162 162 165 171 169 164 162 163 162 161 163 163 161 160
310 306 299 292 290 291 289 290 287 279 280 290 300 312 315 276 241 305 341 347 347 341 331 318 317 321 324 327 327 325 324 318 315 336 17 35 36 31 31 40 52 66 85 94 92 80 62 71 75 64 57 84 118 130 109 109 159 262 274 318 309 229 197 191 189 192 168 169 169 173 163 154 155 157 161 165 172 173 166 163 163 163 162 163 164 163 164
308 305 298 289 286 288 287 287 286 278 275 282 290 290 288 264 318 333 336 339 340 337 328 294 287 309 323 330 328 320 321 319 308 309 347 17 27 32 33 35 46 59 70 80 85 82 64 45 42 47 56 71 91 112 120 115 141 273 290 318 277 188 183 189 204 208 170 162 158 150 147 150 152 154 158 165 172 172 166 164 165 165 164 165 165 165 166
310 306 298 287 281 283 285 283 281 275 271 271 269 260 258 281 319 325 324 329 333 333 329 310 305 314 323 327 326 321 313 309 305 295 298 329 355 14 22 28 42 49 49 59 73 65 44 50 57 46 45 60 85 100 91 105 160 230 267 284 172 171 176 186 187 170 165 163 152 135 136 152 160 161 161 166 172 170 165 165 167 166 165 165 164 164 166
311 308 299 285 278 279 282 280 277 273 270 266 262 263 270 277 284 291 305 322 327 323 313 305 312 278 294 315 325 326 315 309 307 289 293 337 351 3 15 21 33 43 40 43 61 64 62 79 81 61 51 57 77 86 83 156 211 227 243 191 169 171 175 174 166 163 165 168 166 157 159 167 169 166 163 166 170 169 166 167 168 167 165 164 162 163 165
312 311 299 283 275 277 279 279 274 269 268 266 262 261 261 253 244 247 279 311 318 312 295 280 258 277 303 315 329 337 327 326 327 291 342 3 5 8 11 10 19 39 42 39 55 88 82 60 72 82 47 23 41 65 273 255 236 204 182 168 165 167 162 157 159 163 165 169 176 177 170 167 166 165 166 168 170 170 168 167 167 166 164 164 165 165 167
313 311 298 281 275 277 278 278 275 268 263 263 259 245 231 230 228 229 261 295 305 301 288 274 232 299 326 333 338 331 326 326 330 309 343 1 4 358 2 16 29 37 35 36 51 79 50 31 77 114 350 345 9 113 230 230 203 175 168 163 161 161 157 152 156 162 167 172 176 170 163 164 165 165 166 168 170 171 170 169 170 170 166 165 167 169 169
315 313 300 284 281 281 276 271 268 262 257 259 255 232 215 225 233 235 249 266 268 256 262 297 281 183 169 240 287 303 319 326 321 317 329 340 345 351 12 43 54 18 12 28 36 36 33 47 88 24 359 3 203 254 240 203 184 174 171 171 172 174 172 167 164 165 167 172 170 164 164 166 166 165 167 169 169 171 171 170 171 172 169 166 167 169 170
318 315 302 289 283 276 266 253 247 248 254 263 257 229 219 233 246 249 250 254 254 246 239 240 253 224 198 214 281 297 307 301 298 323 357 360 344 360 28 53 39 347 12 21 13 14 30 55 87 58 341 222 261 300 271 202 185 181 178 177 181 184 180 171 166 163 160 159 161 163 165 166 165 166 167 167 167 169 171 170 171 173 171 168 168 169 170
323 319 299 292 282 247 216 215 231 243 258 271 273 258 239 237 247 252 241 227 229 233 224 218 239 233 203 195 270 276 274 307 330 342 6 12 353 349 17 32 9 25 32 330 305 4 28 35 63 68 268 265 300 311 248 196 187 186 182 180 183 186 180 174 170 165 157 153 156 163 165 165 166 168 169 168 168 171 172 171 173 175 174 171 170 170 171
325 314 275 268 259 207 192 256 252 256 273 278 269 265 249 225 223 235 213 192 202 215 207 212 234 225 202 208 267 268 261 319 26 25 248 67 27 308 349 25 32 64 64 287 280 38 49 355 357 9 300 297 319 272 196 187 185 185 183 182 184 185 183 182 183 181 176 170 169 173 175 172 170 171 172 171 170 172 173 175 176 177 175 172 170 171 174
326 323 290 253 242 239 272 279 263 265 285 282 256 253 252 223 218 209 171 157 213 209 195 210 238 229 217 225 253 256 239 238 266 240 191 148 133 27 58 78 112 70 66 272 263 110 98 347 348 2 286 268 239 195 188 187 185 183 182 183 183 184 186 191 194 195 194 187 181 182 184 181 176 173 174 176 175 174 176 176 176 175 174 174 174 176 178
348 350 337 303 291 286 276 261 259 273 284 237 211 266 289 251 249 243 136 97 295 243 215 214 234 238 228 228 227 216 207 215 226 215 148 130 91 74 85 355 8 72 86 256 253 91 86 76 335 293 254 223 200 191 188 187 184 181 181 183 185 188 196 201 197 195 193 188 183 183 184 184 180 176 178 183 183 180 177 177 176 176 177 180 182 183 183
338 335 329 315 307 307 295 255 235 248 280 109 122 304 296 241 265 281 215 194 246 254 221 215 230 260 240 227 221 207 189 192 208 207 135 146 126 106 110 355 24 72 220 245 181 68 54 26 286 276 244 201 189 190 190 188 186 184 184 188 193 197 201 199 193 191 193 193 190 186 184 184 185 182 182 187 189 185 181 180 181 182 185 188 190 190 190
324 323 333 333 326 331 331 260 208 191 80 60 85 322 318 313 302 304 250 241 254 304 5 315 321 324 266 216 200 174 163 172 193 115 104 140 160 87 69 38 32 180 234 245 74 64 24 210 227 259 230 191 187 192 193 191 191 190 191 196 200 199 199 198 194 194 197 199 197 193 189 187 187 187 188 190 190 186 184 185 186 189 194 197 197 196 193
318 317 335 341 344 66 87 216 190 176 181 8 142 163 260 295 286 279 305 292 302 351 350 350 359 1 309 262 217 162 164 169 162 94 87 100 80 69 66 266 239 228 310 35 64 59 240 224 237 260 217 188 190 195 195 193 194 193 193 196 198 197 199 203 204 203 202 200 200 199 194 191 190 192 193 193 191 188 187 189 192 195 197 197 195 192 187
326 325 345 349 354 137 162 222 194 169 203 228 188 170 174 205 216 217 294 320 323 327 326 329 339 345 320 303 281 198 181 150 134 165 154 79 66 78 195 232 235 71 55 24 339 303 271 259 261 247 207 194 194 195 195 195 197 196 193 193 195 199 203 205 207 207 205 202 200 199 196 194 194 195 195 195 194 191 190 191 195 196 192 189 187 185 183
337 348 16 19 282 212 180 165 347 275 210 193 184 180 200 249 246 275 334 337 329 324 323 321 320 317 306 299 284 238 205 142 135 180 129 93 100 238 225 138 61 46 46 10 304 270 244 247 259 245 217 202 196 194 194 196 198 198 197 196 196 199 204 206 207 208 207 204 202 200 198 197 197 198 196 195 194 193 193 196 197 194 189 186 185 185 186
337 4 43 59 304 277 188 178 252 283 15 38 27 12 1 344 326 345 359 353 341 334 330 324 314 300 280 259 241 243 229 145 128 187 129 113 142 281 20 63 82 181 140 203 251 251 237 249 287 284 236 208 197 193 194 196 199 201 202 201 199 200 204 207 207 206 204 203 202 202 200 199 197 196 196 195 195 195 196 197 195 192 190 189 189 188 188
322 348 42 144 248 203 203 290 333 347 20 26 17 11 8 5 1 3 2 355 346 341 335 323 303 284 259 219 188 195 233 104 113 206 191 104 89 7 23 24 312 263 192 196 217 230 239 269 311 321 268 211 200 196 194 196 199 201 201 201 201 203 205 207 206 205 203 203 204 204 202 200 198 197 197 196 196 196 198 200 198 195 193 192 191 191 191
296 286 241 257 273 254 269 311 329 332 348 1 4 6 7 4 360 1 359 352 345 342 336 310 254 234 227 186 148 115 343 143 129 126 54 69 100 170 133 110 259 267 252 216 213 234 257 280 311 325 290 218 204 199 197 198 200 200 199 199 201 203 205 207 207 204 202 202 203 204 202 200 199 200 200 199 197 197 199 204 205 201 198 199 199 198 197
264 261 245 235 262 294 318 340 343 329 340 349 353 358 359 353 349 353 355 347 342 343 344 298 216 212 188 126 82 39 260 210 142 108 109 169 176 147 116 170 221 231 233 229 235 252 270 285 302 309 289 236 212 205 203 202 203 203 201 200 200 201 203 205 206 204 201 199 200 201 201 200 201 202 202 201 200 199 202 208 211 207 204 205 206 203 201
244 253 249 231 238 282 323 339 312 283 314 331 336 340 341 337 335 341 343 340 340 348 358 323 237 69 76 86 94 151 189 162 112 113 168 214 175 138 156 217 223 220 235 255 268 280 289 292 292 290 282 257 228 216 210 208 208 208 206 203 202 203 204 205 205 203 200 198 197 198 199 199 201 202 201 201 201 203 208 215 217 213 209 208 208 207 208
226 251 273 264 261 279 305 313 295 279 291 307 316 322 324 324 328 335 336 335 339 347 339 314 313 75 117 175 191 148 116 88 89 138 208 231 192 160 183 216 231 242 260 279 299 312 310 303 296 288 280 271 254 232 218 213 212 212 210 208 206 206 206 207 207 206 203 200 200 201 201 202 203 205 205 206 208 212 216 219 219 216 213 211 210 212 214